IRIDIUM 33 DEB, 37548

Orbit data source: Space-Track

IRIDIUM 33 DEB, 37548 is space debris in LEO originally from a launch on Sun, 14 Sep 1997 UTC launched from the Tyuratam Missile And Space Complex (TTMTR). The debris from Iridium 33, an American commercial communications satellite, has been tracked extensively since its accidental collision with the defunct Russian satellite Cosmos 2251 in 2009. This event, occurring at high speed in low Earth orbit (LEO), generated thousands of pieces of space debris, significantly increasing the risk of further collisions. The Iridium 33 debris cloud has impacted space traffic management and orbital debris mitigation strategies, making it a subject of ongoing study in space situational awareness.

Loading next visibility...
Identifier
37548, 1997-051XH
Orbit
LEO
Country
Flag of USUS
Related business
Manufacturer
Unknown
Mission
Spacecraft
Bus & Motor
Unknown
Mass
Unknown
Launch date (UTC)
1997-09-14 (29 years ago)
Launch vehicle
Unknown
Launch site
Tyuratam Missile And Space Complex (TTMTR)
Object type
Payload
Rocket body
Debris
Shape & HBR
Unknown shape, 0.1 m
Radar Cross Section
Small (<0.1 m²)

Expand to show TLE details & history
Last TLE update: 2 days ago

TLE from 2 days ago
0 IRIDIUM 33 DEB
1 37548U 97051XH  26207.56047141  .00003699  00000-0  89004-3 0  9995
2 37548  86.3530 304.9725 0025984 151.7488 208.5134 14.52881628688095
Epoch: 2026-07-26T13:27Z
TLE epoch observation values (Epoch: 2026-07-26T13:27:04.729Z)
Latitude
-0.00006°
Longitude
158.94615°
Altitude
735.542 km
Speed
7.479 km/s
True Right ascension
20h 19m 53s
True Declination
0° 00' 00"
Sunlit
Object was in full shadow at epoch
Visualization orbit readout
Latitude
Unknown
Longitude
Unknown
Altitude
Unknown
Speed
Unknown
Apparent Right ascension
Unknown
Apparent Declination
Unknown
Sunlit
N/A
Visualization observer readout
Local Sidereal Time
20:03:30
Azimuth
Unknown
Elevation
Unknown
Doppler factor
Unknown
Orbital elements
Apogee altitude
731.617 km
Perigee altitude
694.765 km
Semi-major axis
7,091.328 km
Eccentricity
0.0026
Inclination
86.353°
RAAN
304.9725°
Arg. of periapsis
151.7488°
True anomaly
208.37167°
Mean anomaly
208.5134°
Eccentric anomaly
208.44249°
Mean motion
3.63456 °/min
Orbital period
99.05 mins
BSTAR
0.00089004
Loading maneuver chart data...
Computing Atmospheric mass density...
Loading historical data...
Loading historical data...
Loading historical data...
Loading historical data...
Loading historical data...
Loading historical data...
Loading historical data...

Documentation

Showing up to 5 results
|